Time,TemperatureF,DewpointF,PressureIn,WindDirection,WindDirectionDegrees,WindSpeedMPH,WindSpeedGustMPH,Humidity,HourlyPrecipIn,Conditions,Clouds,dailyrainin,SolarRadiationWatts/m^2,SoftwareType,DateUTC
2014-01-05 03:53:00,37.0,37.0,30.06,North,-999,0.0,4.0,100,0.00,,,0.00,0.000000,,2014-01-05 08:53:00,
2014-01-05 04:02:00,37.0,37.0,30.06,North,-999,0.0,4.0,100,0.00,,,0.00,0.000000,,2014-01-05 09:02:00,
2014-01-05 04:12:00,37.0,37.0,30.06,North,-999,0.0,4.0,100,0.00,,,0.00,0.000000,,2014-01-05 09:12:00,
2014-01-05 04:22:00,37.0,37.0,30.06,North,-999,0.0,4.0,100,0.00,,,0.00,0.000000,,2014-01-05 09:22:00,
2014-01-05 04:53:00,35.0,35.0,30.05,North,-999,0.0,0.0,100,0.01,,,0.01,0.000000,,2014-01-05 09:53:00,
2014-01-05 05:03:00,35.0,35.0,30.05,North,-999,0.0,0.0,100,0.01,,,0.01,0.000000,,2014-01-05 10:03:00,
2014-01-05 05:12:00,35.0,35.0,30.05,North,-999,0.0,0.0,100,0.01,,,0.01,0.000000,,2014-01-05 10:12:00,
2014-01-05 05:23:00,35.0,35.0,30.05,North,-999,0.0,0.0,100,0.01,,,0.01,0.000000,,2014-01-05 10:23:00,
2014-01-05 05:53:00,36.0,36.0,30.02,North,-999,0.0,0.0,100,0.00,,,0.01,0.000000,,2014-01-05 10:53:00,
2014-01-05 06:02:00,36.0,36.0,30.02,North,-999,0.0,0.0,100,0.00,,,0.01,0.000000,,2014-01-05 11:02:00,
2014-01-05 06:12:00,36.0,36.0,30.02,North,-999,0.0,0.0,100,0.00,,,0.01,0.000000,,2014-01-05 11:12:00,
2014-01-05 06:22:00,36.0,36.0,30.02,North,-999,0.0,0.0,100,0.00,,,0.01,0.000000,,2014-01-05 11:22:00,
2014-01-05 06:53:00,36.0,36.0,30.01,NNE,24,1.0,5.0,100,0.00,,,0.01,0.000000,,2014-01-05 11:53:00,
2014-01-05 07:02:00,36.0,36.0,30.01,NNE,24,1.0,5.0,100,0.00,,,0.01,0.000000,,2014-01-05 12:02:00,
2014-01-05 07:12:00,36.0,36.0,30.01,NNE,24,1.0,5.0,100,0.00,,,0.01,0.000000,,2014-01-05 12:12:00,
2014-01-05 07:22:00,36.0,36.0,30.01,NNE,24,1.0,5.0,100,0.00,,,0.01,0.000000,,2014-01-05 12:22:00,
2014-01-05 07:52:00,35.0,35.0,30.02,North,-999,0.0,5.0,100,0.00,,,0.01,0.000000,,2014-01-05 12:52:00,
2014-01-05 08:02:00,35.0,35.0,30.02,North,-999,0.0,5.0,100,0.00,,,0.01,0.000000,,2014-01-05 13:02:00,
2014-01-05 08:11:00,35.0,35.0,30.02,North,-999,0.0,5.0,100,0.00,,,0.01,0.000000,,2014-01-05 13:11:00,
2014-01-05 08:22:00,35.0,35.0,30.02,North,-999,0.0,5.0,100,0.00,,,0.01,0.000000,,2014-01-05 13:22:00,
2014-01-05 08:53:00,37.0,37.0,30.01,North,-999,0.0,3.0,100,0.00,,,0.01,3.000000,,2014-01-05 13:53:00,
2014-01-05 09:02:00,37.0,37.0,30.01,North,-999,0.0,3.0,100,0.00,,,0.01,3.000000,,2014-01-05 14:02:00,
2014-01-05 09:12:00,37.0,37.0,30.01,North,-999,0.0,3.0,100,0.00,,,0.01,3.000000,,2014-01-05 14:12:00,
2014-01-05 09:22:00,37.0,37.0,30.01,North,-999,0.0,3.0,100,0.00,,,0.01,3.000000,,2014-01-05 14:22:00,
2014-01-05 09:52:00,37.0,37.0,30.01,North,-999,0.0,3.0,100,0.02,,,0.03,27.000000,,2014-01-05 14:52:00,
2014-01-05 10:02:00,37.0,37.0,30.01,North,-999,0.0,3.0,100,0.02,,,0.03,27.000000,,2014-01-05 15:02:00,
2014-01-05 10:11:00,37.0,37.0,30.01,North,-999,0.0,3.0,100,0.02,,,0.03,27.000000,,2014-01-05 15:11:00,
2014-01-05 10:22:00,37.0,37.0,30.01,North,-999,0.0,3.0,100,0.02,,,0.03,27.000000,,2014-01-05 15:22:00,
2014-01-05 10:54:00,39.0,39.0,29.99,North,-999,0.0,5.0,100,0.01,,,0.04,77.000000,,2014-01-05 15:54:00,
2014-01-05 11:04:00,39.0,39.0,29.99,North,-999,0.0,5.0,100,0.01,,,0.04,77.000000,,2014-01-05 16:04:00,
2014-01-05 11:13:00,39.0,39.0,29.99,North,-999,0.0,5.0,100,0.01,,,0.04,77.000000,,2014-01-05 16:13:00,
2014-01-05 11:23:00,39.0,39.0,29.99,North,-999,0.0,5.0,100,0.01,,,0.04,77.000000,,2014-01-05 16:23:00,
2014-01-05 11:53:00,40.0,40.0,29.96,North,-999,0.0,6.0,99,0.01,,,0.05,145.000000,,2014-01-05 16:53:00,
2014-01-05 12:02:00,40.0,40.0,29.96,North,-999,0.0,6.0,99,0.01,,,0.05,145.000000,,2014-01-05 17:02:00,
2014-01-05 12:12:00,40.0,40.0,29.96,North,-999,0.0,6.0,99,0.01,,,0.05,145.000000,,2014-01-05 17:12:00,
2014-01-05 12:22:00,40.0,40.0,29.96,North,-999,0.0,6.0,99,0.01,,,0.05,145.000000,,2014-01-05 17:22:00,
2014-01-05 12:53:00,39.0,39.0,29.92,North,-999,0.0,0.0,99,0.00,,,0.05,75.000000,,2014-01-05 17:53:00,
2014-01-05 13:02:00,39.0,39.0,29.92,North,-999,0.0,0.0,99,0.00,,,0.05,75.000000,,2014-01-05 18:02:00,
2014-01-05 13:12:00,39.0,39.0,29.92,North,-999,0.0,0.0,99,0.00,,,0.05,75.000000,,2014-01-05 18:12:00,
2014-01-05 13:22:00,39.0,39.0,29.92,North,-999,0.0,0.0,99,0.00,,,0.05,75.000000,,2014-01-05 18:22:00,
2014-01-05 13:52:00,38.0,37.0,29.88,North,-999,0.0,4.0,98,0.00,,,0.05,73.000000,,2014-01-05 18:52:00,
2014-01-05 14:02:00,38.0,37.0,29.88,North,-999,0.0,4.0,98,0.00,,,0.05,73.000000,,2014-01-05 19:02:00,
2014-01-05 14:12:00,38.0,37.0,29.88,North,-999,0.0,4.0,98,0.00,,,0.05,73.000000,,2014-01-05 19:12:00,
2014-01-05 14:22:00,38.0,37.0,29.88,North,-999,0.0,4.0,98,0.00,,,0.05,73.000000,,2014-01-05 19:22:00,
2014-01-05 14:52:00,37.0,37.0,29.83,North,-999,0.0,3.0,99,0.00,,,0.05,49.000000,,2014-01-05 19:52:00,
2014-01-05 15:02:00,37.0,37.0,29.83,North,-999,0.0,3.0,99,0.00,,,0.05,49.000000,,2014-01-05 20:02:00,
2014-01-05 15:11:00,37.0,37.0,29.83,North,-999,0.0,3.0,99,0.00,,,0.05,49.000000,,2014-01-05 20:11:00,
2014-01-05 15:22:00,37.0,37.0,29.83,North,-999,0.0,3.0,99,0.00,,,0.05,49.000000,,2014-01-05 20:22:00,
2014-01-05 15:52:00,37.0,37.0,29.84,North,-999,0.0,0.0,99,0.00,,,0.05,48.000000,,2014-01-05 20:52:00,
2014-01-05 16:02:00,37.0,37.0,29.84,North,-999,0.0,0.0,99,0.00,,,0.05,48.000000,,2014-01-05 21:02:00,
2014-01-05 16:12:00,37.0,37.0,29.84,North,-999,0.0,0.0,99,0.00,,,0.05,48.000000,,2014-01-05 21:12:00,
2014-01-05 16:22:00,37.0,37.0,29.84,North,-999,0.0,0.0,99,0.00,,,0.05,48.000000,,2014-01-05 21:22:00,
2014-01-05 16:53:00,38.0,38.0,29.83,North,-999,0.0,2.0,99,0.00,,,0.05,42.000000,,2014-01-05 21:53:00,
2014-01-05 17:03:00,38.0,38.0,29.83,North,-999,0.0,2.0,99,0.00,,,0.05,42.000000,,2014-01-05 22:03:00,
2014-01-05 17:13:00,38.0,38.0,29.83,North,-999,0.0,2.0,99,0.00,,,0.05,42.000000,,2014-01-05 22:13:00,
2014-01-05 17:23:00,38.0,38.0,29.83,North,-999,0.0,2.0,99,0.00,,,0.05,42.000000,,2014-01-05 22:23:00,
2014-01-05 17:53:00,37.0,37.0,29.81,North,-999,0.0,0.0,99,0.00,,,0.05,8.000000,,2014-01-05 22:53:00,
2014-01-05 18:03:00,37.0,37.0,29.81,North,-999,0.0,0.0,99,0.00,,,0.05,8.000000,,2014-01-05 23:03:00,
2014-01-05 18:12:00,37.0,37.0,29.81,North,-999,0.0,0.0,99,0.00,,,0.05,8.000000,,2014-01-05 23:12:00,
2014-01-05 18:22:00,37.0,37.0,29.81,North,-999,0.0,0.0,99,0.00,,,0.05,8.000000,,2014-01-05 23:22:00,
2014-01-05 18:53:00,37.0,37.0,29.80,North,-999,0.0,6.0,100,0.00,,,0.05,0.000000,,2014-01-05 23:53:00,
2014-01-05 19:02:00,37.0,37.0,29.80,North,-999,0.0,6.0,100,0.00,,,0.05,0.000000,,2014-01-06 00:02:00,
2014-01-05 19:11:00,37.0,37.0,29.80,North,-999,0.0,6.0,100,0.00,,,0.05,0.000000,,2014-01-06 00:11:00,
2014-01-05 19:22:00,37.0,37.0,29.80,North,-999,0.0,6.0,100,0.00,,,0.05,0.000000,,2014-01-06 00:22:00,
2014-01-05 19:52:00,35.0,35.0,29.75,North,-999,0.0,4.0,100,0.00,,,0.05,0.000000,,2014-01-06 00:52:00,
2014-01-05 20:02:00,35.0,35.0,29.75,North,-999,0.0,4.0,100,0.00,,,0.05,0.000000,,2014-01-06 01:02:00,
2014-01-05 20:12:00,35.0,35.0,29.75,North,-999,0.0,4.0,100,0.00,,,0.05,0.000000,,2014-01-06 01:12:00,
2014-01-05 20:22:00,35.0,35.0,29.75,North,-999,0.0,4.0,100,0.00,,,0.05,0.000000,,2014-01-06 01:22:00,
2014-01-05 20:52:00,37.0,37.0,29.75,North,-999,0.0,3.0,100,0.00,,,0.05,0.000000,,2014-01-06 01:52:00,
2014-01-05 21:02:00,37.0,37.0,29.75,North,-999,0.0,3.0,100,0.00,,,0.05,0.000000,,2014-01-06 02:02:00,
2014-01-05 21:11:00,37.0,37.0,29.75,North,-999,0.0,3.0,100,0.00,,,0.05,0.000000,,2014-01-06 02:11:00,
2014-01-05 21:22:00,37.0,37.0,29.75,North,-999,0.0,3.0,100,0.00,,,0.05,0.000000,,2014-01-06 02:22:00,
2014-01-05 21:52:00,38.0,38.0,29.72,North,-999,0.0,7.0,100,0.00,,,0.05,0.000000,,2014-01-06 02:52:00,
2014-01-05 22:02:00,38.0,38.0,29.72,North,-999,0.0,7.0,100,0.00,,,0.05,0.000000,,2014-01-06 03:02:00,
2014-01-05 22:11:00,38.0,38.0,29.72,North,-999,0.0,7.0,100,0.00,,,0.05,0.000000,,2014-01-06 03:11:00,
2014-01-05 22:22:00,38.0,38.0,29.72,North,-999,0.0,7.0,100,0.00,,,0.05,0.000000,,2014-01-06 03:22:00,
2014-01-05 22:53:00,39.0,39.0,29.68,ESE,121,2.0,11.0,100,0.00,,,0.05,0.000000,,2014-01-06 03:53:00,
2014-01-05 23:03:00,39.0,39.0,29.68,ESE,121,2.0,11.0,100,0.00,,,0.05,0.000000,,2014-01-06 04:03:00,
2014-01-05 23:13:00,39.0,39.0,29.68,ESE,121,2.0,11.0,100,0.00,,,0.05,0.000000,,2014-01-06 04:13:00,
2014-01-05 23:23:00,39.0,39.0,29.68,ESE,121,2.0,11.0,100,0.00,,,0.05,0.000000,,2014-01-06 04:23:00,
2014-01-05 23:53:00,37.0,37.0,29.64,North,-999,0.0,9.0,100,0.02,,,0.07,0.000000,,2014-01-06 04:53:00,